Location: Elmal?
(36.7358°N, 29.9178°E)
Time: 23:17:39
(UTC+00:00)

Daily predictions for brighter satellites

Satellite Brightness Start Highest point End
(mag) Time Altitude Azimuth Time Altitude Azimuth Time Altitude Azimuth
CZ-4C R/B 3.7 14:59:16 10° NNW 15:05:32 30° NE 15:12:52 10° ESE
USA 290 3.5 15:07:50 10° NNE 15:10:27 22° ENE 15:13:03 10° ESE
NOSS 2-3 (D) 4.4 15:07:27 10° S 15:10:44 26° ESE 15:13:50 10° ENE
ARIANE 5 R/B 2.9 15:08:31 10° SE 15:13:10 40° ENE 15:17:54 10° N
BREEZE-M DEB (TANK) 4.5 15:10:47 10° NNW 15:13:24 18° NNE 15:18:29 10° ENE
CZ-2D R/B 3.7 15:13:20 10° SE 15:16:01 27° ENE 15:18:43 10° NNE
ATLAS CENTAUR R/B 1.4 15:14:35 10° N 15:17:28 30° NE 15:20:14 10° ESE
Cosmos 2266 Rocket 4.3 15:12:28 10° N 15:18:18 44° ENE 15:24:00 10° SSE
Cosmos 1980 Rocket 3.4 15:17:14 10° SSE 15:21:32 23° E 15:25:50 10° NE
Cosmos 2098 Rocket 3.1 15:17:57 10° SSW 15:21:40 75° W 15:26:09 10° N
BREEZE-M DEB (TANK) 3.1 15:20:57 10° WNW 15:22:00 14° NNW 15:23:11 10° NNE
Cosmos 1733 1.9 15:23:33 10° NNW 15:25:06 49° W 15:26:38 10° S
Cosmos 1758 Rocket 3.5 15:21:12 10° N 15:25:31 87° W 15:29:46 10° S
Cosmos 2208 Rocket 3.9 15:20:38 10° NNW 15:25:48 73° ENE 15:30:59 10° SSE
NOSS 3-2 (C) 3.4 15:23:44 10° SW 15:28:31 62° NW 15:34:05 10° NNE
Cosmos 2151 2.9 15:27:40 10° N 15:31:48 60° E 15:35:54 10° SSE
SL-16 R/B 3.9 15:28:29 10° N 15:34:09 38° WNW 15:39:46 10° SW
CORIOLIS 4.2 15:29:39 10° SSE 15:34:59 87° WSW 15:40:20 10° NNW
Cosmos 1743 2.2 15:32:21 10° N 15:35:36 87° W 15:38:49 10° S
Helios 1A Rocket 4.2 15:38:25 15° E 15:38:46 15° E 15:40:47 10° SE
Cosmos 2263 Rocket 3.6 15:35:50 10° NNE 15:39:24 17° NE 15:41:20 14° ENE
MOS 1 Rocket 3.5 15:36:52 10° SSE 15:41:30 55° ENE 15:46:26 10° N
AQUARIUS 4.0 15:41:49 10° SSE 15:46:10 64° ENE 15:50:31 10° N
Thor Agena Rocket 4.4 15:44:12 10° S 15:49:18 54° WSW 15:54:24 10° NNW
Cosmos 1933 3.2 15:46:04 10° S 15:49:53 85° W 15:53:44 10° N
Cosmos 1606 Rocket 3.5 15:46:55 10° S 15:51:17 86° E 15:55:43 10° N
SJ-12 3.7 15:47:40 10° SSE 15:51:26 88° WSW 15:55:13 10° NNW
Cosmos 2227 Rocket 2.7 15:47:13 10° N 15:52:25 36° ENE 15:57:34 10° SE
Cosmos 1076 Rocket 4.2 15:49:10 10° NNE 15:53:01 31° ENE 15:56:50 10° SE
Cosmos 2084 Rocket 3.9 15:53:54 10° NNW 15:57:49 36° NE 16:00:12 20° ESE
CZ-2D R/B 4.0 15:54:21 10° SE 15:58:12 36° ENE 16:02:02 10° N
Meteor 2-20 4.5 15:53:34 10° S 15:59:34 58° E 16:05:36 10° NNE
Cosmos 724 4.2 15:53:41 10° NNW 15:59:42 77° ENE 16:05:32 10° SSE
IRS-1C 4.4 15:55:06 10° S 16:00:23 72° WSW 16:05:43 10° NNW
BlueWalker 3 1.7 15:57:28 10° NW 16:01:06 87° SW 16:04:33 11° SE
Resurs 1-3 4.2 15:57:22 10° SE 16:01:09 31° ENE 16:04:57 10° N
Cosmos 1697 Rocket 3.1 15:57:02 10° SSW 16:02:34 64° WNW 16:08:09 10° NNE
Hubble Space Telescope 3.0 16:00:44 10° SSW 16:02:36 13° SSE 16:04:21 10° SE
COSMO-SKYMED 1 2.6 16:02:54 18° NNE 16:05:46 50° E 16:09:45 10° S
BREEZE-M DEB (TANK) 2.9 16:00:44 10° WSW 16:06:12 64° NW 16:07:20 32° NNE
BREEZE M DEB (TANK) 2.8 16:03:31 10° NW 16:11:20 55° NNE 16:12:30 36° E
Spot 4 Rocket 4.2 16:06:42 10° SE 16:11:33 48° ENE 16:16:27 10° N
BREEZE-M DEB (TANK) 3.8 16:02:24 10° SW 16:13:49 65° SE 16:16:20 29° ENE
Okean 1 4.4 16:11:37 10° SSE 16:13:33 24° SE 16:13:33 24° SE
Okean 1-7 Rocket 4.2 16:11:15 10° NNW 16:15:33 57° W 16:19:49 10° S
Cosmos 1726 Rocket 4.0 16:11:58 10° SSW 16:16:35 68° W 16:21:12 10° N
ATLAS 5 CENTAUR R/B 4.5 16:12:32 10° SSW 16:18:57 88° ESE 16:48:25 10° NE
Gbstr 26 Del rocket 4.3 16:15:34 10° W 16:19:02 27° NNW 16:20:36 20° N
Cosmos 1655 Rocket 3.9 16:13:04 10° N 16:19:17 74° E 16:25:29 10° SSE
Cosmos 1898 Rocket 3.6 16:16:14 10° S 16:21:11 51° ESE 16:23:02 34° NE
Meteor 2-20 Rocket 4.4 16:15:29 10° S 16:21:43 62° E 16:27:44 10° NNE
NOSS 2-3 (C) 3.8 16:20:57 10° SW 16:24:23 46° NW 16:25:41 30° N
SKYMED 2 4.2 16:23:07 10° N 16:27:22 55° WNW 16:31:36 10° SSW
USA 238 DEB 3.4 16:22:24 10° SW 16:28:22 82° WNW 16:32:29 24° NNE
USA 238 3.4 16:22:30 10° SSW 16:28:28 83° WNW 16:32:34 24° NNE
YAOGAN 1 2.3 16:25:42 10° SSE 16:29:54 72° ENE 16:34:10 10° N
Meteor 2-10 4.1 16:25:06 10° N 16:30:23 55° E 16:35:50 10° SSE
Meteor 1-26 Rocket 4.0 16:27:09 10° S 16:32:33 68° E 16:35:38 26° NNE
SJ-7 4.2 16:36:54 10° S 16:44:59 - NNW 16:40:10 68° S
Cosmos 1867 3.5 16:36:16 10° NNW 16:41:44 87° WSW 16:46:41 12° SSE
Cosmos 1937 Rocket 3.4 16:38:17 10° S 16:43:23 60° ESE 16:43:35 60° E
Cosmos 372 Rocket 4.0 16:38:59 10° SSW 16:44:08 75° WNW 16:46:33 32° N
SL-16 R/B 4.2 16:40:08 10° SSE 16:40:50 13° SSE 16:40:50 13° SSE
Aureole 1 Rocket 3.5 16:40:53 10° SSW 16:44:47 61° WNW 16:46:49 32° N
Cosmos 2297 Rocket 4.0 16:40:11 10° NW 16:45:06 31° WSW 16:50:01 10° SSW
Cosmos-2242 3.1 16:43:33 10° SSW 16:47:46 70° W 16:48:42 51° NNW
Cosmos 1953 Rocket 4.1 16:45:49 10° NNW 16:50:12 59° W 16:54:33 10° S
ATLAS CENTAUR R/B 4.2 16:50:58 10° W 16:51:54 11° WSW 16:52:50 10° SW
H-II Stage 2 4.2 16:48:15 10° W 16:53:23 18° SW 16:55:22 13° S
CZ-4C R/B 3.4 16:46:47 10° NW 16:54:24 71° WSW 17:03:24 10° SSE
NOAA 6 3.9 16:51:36 10° SSE 16:56:42 89° ENE 17:01:50 10° NNW
USA 81 4.4 16:55:05 10° N 17:00:17 62° W 17:05:27 10° S
Cosmos 2219 4.4 16:56:51 10° NNW 16:59:37 28° N 16:59:37 28° N
Cosmos 1980 Rocket 3.2 16:59:47 10° SW 17:05:09 44° WNW 17:08:01 25° N
Cosmos 2369 3.9 17:07:28 10° SSW 17:13:09 70° WNW 17:13:46 64° NNW
Nadezhda 2 Rocket 4.3 17:07:36 10° N 17:13:45 84° W 17:19:49 10° S
Cosmos 1553 Rocket 4.3 17:12:12 10° SSW 17:18:12 61° W 17:22:05 23° N
COSMOS 2455 3.4 17:16:09 10° SSW 17:20:24 48° S 17:20:24 48° S
Cosmos 2263 Rocket 2.5 17:18:11 10° NNW 17:23:09 62° WNW 17:23:09 62° WNW
Cosmos 2227 Rocket 4.0 17:31:32 10° NW 17:36:14 28° WSW 17:40:55 10° SSW
